Terminal Aerodrome Forecast
Issued by NWS

Home | Current Version | Previous Version | Text Only | Print | Product List | Glossary On
Versions: 1 2 3 4 5 6 7 8 9 10 11 12 13 14 15 16 17 18 19 20 21 22 23 24 25 26 27 28 29 30 31 32 33 34 35 36 37 38 39 40 41 42 43 44 45 46 47 48 49 50
000
FTAK31 PANC 281905 AAA
TAFASD
TAF AMD
PASD 281905Z 2819/2918 01013KT 2SM -RA BR OVC012
     FM282100 35010KT 3SM -RA BR BKN008 BKN015
     FM290000 36008KT 3SM -DZ BR BKN005 OVC025
      AMD LTD TO CLD VIS AND WIND=

USA.gov is the U.S. government's official web portal to all federal, state and local government web resources and services.